AirNav   Bose ProFlight Aviation Headset
 
 396 users online  

9I0 Havana Regional Airport
Havana, Illinois, USA

GOING TO HAVANA?


FAA INFORMATION EFFECTIVE 19 JULY 2018

Location

FAA Identifier: 9I0
Lat/Long: 40-13-21.6950N / 090-01-22.0150W
40-13.361583N / 090-01.366917W
40.2226931 / -90.0227819
(estimated)
Elevation: 499 ft. / 152.1 m (surveyed)
Variation: 01E (1985)
From city: 5 miles SE of HAVANA, IL
Time zone: UTC -5 (UTC -6 during Standard Time)
Zip code: 62644

Airport Operations

Airport use: Open to the public
Activation date: 03/1985
Control tower: no
ARTCC: KANSAS CITY CENTER
FSS: KANKAKEE FLIGHT SERVICE STATION
NOTAMs facility: IKK (NOTAM-D service available)
Attendance: IREG
Wind indicator: lighted
Segmented circle: no
Beacon: white-green (lighted land airport)
Operates sunset to sunrise.

Airport Communications

CTAF: 122.9

Nearby radio navigation aids

VOR radial/distance  VOR name  Freq  Var
SPIr326/27.9SPINNER VORTAC112.7001W
PIAr197/29.4PEORIA VORTAC115.2004E

 
NDB name  Hdg/Dist  Freq  Var  ID
MACOMB125/30.325101EJZY .--- --.. -.--
ABRAHAM277/31.632900EAAA .- .- .-

Airport Services

Fuel available: 100LL
SELF SVC FUEL AVBL 24 HRS.
Parking: tiedowns

Runway Information

Runway 9/27

Dimensions: 2235 x 100 ft. / 681 x 30 m
Surface: turf, in good condition
Runway edge lights: medium intensity
RUNWAY 9  RUNWAY 27
Latitude: 40-13.360833N40-13.362333N
Longitude: 090-01.607000W090-01.126833W
Elevation: 485.5 ft.488.2 ft.
Traffic pattern: leftleft
Touchdown point: yes, no lightsyes, no lights

Airport Ownership and Management from official FAA records

Ownership: Publicly-owned
Owner: HAVANA REGIONAL PORT DISTRICT
17787 SHERWOOD FOREST RD
HAVANA, IL 62644
Phone (217) 725-0628
Manager: BOB MARTIN
18206 QUIVER BEACH RD
HAVANA, IL 62644-6895
Phone 217-871-6251
EMAIL ADDRESS: FLYBYEWIRE@GMAIL.COM (ALL LOWER CASE)

Airport Operational Statistics

Aircraft based on the field: 15
Single engine airplanes: 13
Ultralights: 2
    
Aircraft operations: avg 27/week *
71% local general aviation
29% transient general aviation
* for 12-month period ending 30 April 2017

Additional Remarks

9 FT CROPS E OF RY 27 THLD - SEASONAL.

Instrument Procedures

There are no published instrument procedures at 9I0.

Some nearby airports with instrument procedures:

KCTK - Ingersoll Airport (21 nm N)
C15 - Pekin Municipal Airport (22 nm NE)
KSPI - Abraham Lincoln Capital Airport (28 nm SE)
KIJX - Jacksonville Municipal Airport (29 nm S)
KPIA - General Downing - Peoria International Airport (30 nm NE)
 
Loc | Ops | Rwys | IFR | FBO | Links
Com | Nav | Svcs | Stats | Notes


 
Area around 9I0 (Havana Regional Airport)
 
Road maps at: MapQuest Bing Google
 
Aerial photo
WARNING: Photo may not be current or correct
Aerial photo of 9I0 (Havana Regional Airport)
Taken mid June 2008

Do you have a better or more recent aerial photo of Havana Regional Airport that you would like to share? If so, please send us your photo.

 
Sectional chart

 
Airport distance calculator
Flying to Havana Regional Airport? Find the distance to fly.

From to 9I0

Sunrise and sunset
Times for 15-Aug-2018
 Local
(UTC-5)
 Zulu
(UTC)
Morning civil twilight05:4310:43
Sunrise06:1211:12
Sunset19:5700:57
Evening civil twilight20:2601:26

Current date and time
Zulu (UTC)  15-Aug-2018 09:53:09
Local (UTC-5)  15-Aug-2018 04:53:09
 
METAR
KSPI 
27nm SE 
150852Z AUTO 18005KT 10SM FEW050 OVC070 23/23 A2993 RMK AO2 SLP128 T02330228 57006
KIJX 
29nm S 
150935Z AUTO 00000KT 7SM SCT090 22/21 A2991 RMK AO2 T02180211
KPIA 
31nm NE 
150935Z 09003KT 10SM BKN014 OVC050 23/21 A2993 RMK AO2 T02280211
KAAA 
32nm E 
150935Z AUTO 00000KT 7SM CLR 21/21 A2993 RMK AO2 T02130212
KMQB 
34nm NW 
150935Z AUTO 00000KT 7SM -RA SCT007 SCT085 BKN090 21/21 A2993 RMK AO2 T02120210
KI63 
39nm W 
150935Z AUTO 00000KT 5SM RA SCT003 SCT033 OVC048 22/21 A2990 RMK AO2 T02150212
KGBG 
47nm NW 
150935Z AUTO 12004KT 10SM OVC010 22/21 A2993 RMK AO2 T02220205
KPPQ 
50nm SW 
150930Z AUTO 17003KT 10SM OVC055 23/22 A2992 RMK AO2 T02250221
TAF
KSPI 
27nm SE 
150807Z 1508/1606 17007KT P6SM VCTS SCT015 OVC040CB FM151400 18008KT 6SM -SHRA VCTS OVC030CB FM152100 18008KT 6SM -SHRA VCTS BKN015CB FM160000 18006KT P6SM OVC035
KPIA 
31nm NE 
150520Z 1506/1606 17007KT P6SM VCSH SCT100 FM150900 16008KT P6SM VCSH OVC025 FM151000 17005KT 5SM -SHRA VCTS OVC008CB FM151500 18006KT P6SM VCTS BKN020CB FM160000 VRB04KT P6SM BKN045
NOTAMs
Click for the latest NOTAMs
NOTAMs are issued by the DoD/FAA and will open in a separate window not controlled by AirNav.

 

 
 

FBO, Fuel Providers, and Aircraft Ground Support

  
 Business Name 
 
 Contact 
 
 Services / Description 
 
Fuel Prices
 
Comments
  
Havana Regional Airport 309-696-4836
no information available

If you are affiliated with Havana Regional Airport and would like to show here your services, contact info, web link, logo, and more, click here
100LL
SS $4.20 
 Updated 22-Oct-2017
 
   1 read write
SS=Self service
Update Fuel Prices
 

Would you like to see your business listed on this page?

 If your business provides an interesting product or service to pilots, flight crews, aircraft, or users of the Havana Regional Airport, you should consider listing it here.  To start the listing process, click on the button below
 
Add a business
 

Other Pages about Havana Regional Airport

www.havanaregional.com
 
Update a link
 
Copyright © AirNav, LLC. All rights reserved. Privacy Policy  Contact